User: anonymous   Login
Location: Santa Cristina
(46.5667°N, 11.7167°E)
Time: 20:36:43
(UTC+00:00)
Language:

Cosmos 2369 Rocket - Orbit

View from above orbital plane
View from above orbital plane
View from above satellite
View from above satellite

Ground track
Ground track

The orbit data is extracted from the following two-line orbital elements,

1 26070U 00006B   21172.55403762 -.00000302  00000-0 -13014-3 0  9995
2 26070  71.0020 117.6276 0018906 281.2736  78.6262 14.15466498104824
Epoch (UTC): 21 June 2021 13:17:48
Eccentricity: 0.0018906
inclination: 71.0020°
perigee height: 827 km
apogee height: 854 km
right ascension of ascending node: 117.6276°
argument of perigee: 281.2736°
revolutions per day: 14.15466498
mean anomaly at epoch: 78.6262°
orbit number at epoch: 10482

The dashed part of the orbit path shows where the satellite is in the earth's shadow,  

DLR